sim
Sign-in with your pilot id or email,
or register
Callsign
Passwort

Schedule Details

Flight Number: RYR8968 (5)
Departure: Athens Eleftherios Venizelos (LGAV) at 16:40
Arrival: Thessaloniki International Airport (LGTS) at 17:40
Route: Ryanair Passenger Schedule. Enter filed route here before submitting Pirep.

Weather Information
Getting current METAR information for LGAV 192150Z 27004KT 230V300 9999 FEW030 08/04 Q1023 NOSIG
Getting current METAR information for LGTS 192150Z 03005KT 9999 FEW020 13/09 Q1023 NOSIG

Schedule Frequency

Route Map